Wind_Speed
41 41 41 41 41 41 40 41 39 40 40 40 40 40 39 39 38 38 37 35 33 32 30 28 26 24 22 20 18 16 15 14 13 13 13 14 15 17
42 43 44 44 44 43 44 44 44 42 41 41 42 42 41 41 41 40 39 38 36 35 33 31 29 26 24 22 20 18 16 14 13 13 13 14 15 16
44 44 45 46 46 46 45 47 47 46 44 43 44 44 43 43 43 43 43 41 39 37 36 34 32 29 27 24 22 20 18 16 14 14 14 14 15 16
47 47 47 47 48 49 49 48 49 49 48 48 46 46 44 45 45 45 45 44 42 41 39 37 35 32 29 27 25 22 20 18 17 15 15 15 16 16
49 50 50 50 50 50 51 51 52 52 51 50 49 48 48 47 46 46 46 46 45 43 42 40 38 35 32 30 28 25 23 21 19 17 17 16 16 17
50 51 52 53 53 53 53 53 54 54 53 53 51 51 50 49 48 47 47 47 46 46 44 42 40 38 35 33 30 27 25 23 20 19 18 17 17 17
51 51 52 54 55 55 55 55 56 56 56 55 54 54 53 51 48 47 47 47 46 46 46 45 43 41 38 35 32 29 26 24 22 20 20 19 18 18
49 50 52 54 55 56 57 57 58 58 58 57 56 56 56 54 50 48 48 48 47 46 47 46 45 43 41 38 35 31 29 26 24 22 21 20 19 18
47 49 50 52 53 55 57 58 59 59 59 59 59 58 57 56 53 50 49 49 48 47 47 47 46 44 43 40 37 34 31 28 26 24 22 21 20 19
43 45 47 50 51 53 55 57 58 59 60 59 60 60 59 58 56 54 52 50 49 49 48 46 45 45 44 42 39 36 33 30 28 25 24 22 20 20
38 41 43 46 49 50 52 54 56 57 58 59 59 61 61 60 58 57 55 53 51 48 47 46 45 44 44 43 40 37 34 32 29 27 25 23 22 20
33 35 38 41 44 47 49 51 52 55 56 57 58 58 60 61 60 58 56 54 51 49 47 47 46 45 43 43 42 39 36 33 31 28 26 24 23 21
27 29 33 37 39 42 44 46 49 52 54 55 57 57 57 58 59 58 56 55 52 49 46 45 45 45 44 42 42 40 37 34 32 30 28 25 24 22
23 25 28 32 35 38 40 42 46 48 50 51 54 54 55 56 57 57 56 54 53 50 48 46 45 45 44 43 41 40 38 35 33 30 28 26 25 23
19 21 25 29 32 34 37 39 41 44 46 47 48 50 52 53 55 56 56 55 53 50 48 46 44 45 44 43 41 40 39 37 34 31 28 26 25 24
16 19 22 25 28 32 35 37 38 40 43 44 45 47 49 51 52 54 55 55 54 51 49 47 44 44 43 42 40 39 38 37 34 32 29 27 25 25
13 17 21 24 26 30 32 34 35 37 39 40 42 43 45 48 49 51 52 53 53 52 49 48 47 45 44 43 41 38 36 35 33 31 30 28 27 26
12 16 20 23 25 27 29 31 33 35 37 38 39 40 42 45 46 48 49 50 51 51 49 48 47 45 44 43 41 38 36 35 33 31 30 29 27 26
12 15 19 22 24 26 28 29 30 33 35 36 37 38 40 42 45 45 47 49 50 50 50 48 46 45 44 43 41 39 36 34 33 32 30 29 28 27
12 16 18 21 23 25 26 28 30 32 33 34 35 36 38 41 44 44 46 48 49 50 50 49 47 45 44 43 41 39 37 35 33 32 31 30 28 27
10 15 17 19 22 23 24 25 27 29 31 32 34 35 36 39 42 43 45 47 49 49 49 47 46 46 46 43 41 39 38 36 34 33 32 30 29 28
9 13 15 18 20 21 23 24 25 27 28 30 32 33 35 38 41 43 45 46 48 48 47 46 47 46 44 42 40 39 37 36 35 34 32 30 29 28
7 10 13 14 17 19 21 22 23 24 26 27 29 31 33 36 39 42 45 46 47 47 47 45 46 45 44 42 41 39 37 36 35 33 32 30 29 28
Wind_Direction
253 250 248 244 240 237 234 232 229 226 224 223 222 220 219 219 219 218 218 218 219 219 219 219 219 220 222 223 225 229 233 238 244 252 259 264 266 265
254 251 248 245 241 237 234 230 229 226 223 220 219 219 218 219 219 219 219 219 220 220 220 220 220 221 222 224 227 230 233 238 245 255 264 270 272 273
255 252 248 245 241 238 234 230 229 226 223 220 218 218 219 219 220 220 221 221 221 221 222 222 222 222 224 225 228 231 235 240 247 256 265 272 275 277
255 251 248 245 242 238 235 231 228 227 224 222 219 218 220 220 220 221 221 221 222 222 222 223 222 223 224 226 229 233 237 242 248 257 265 272 276 280
255 251 247 245 242 238 235 232 230 228 226 223 220 218 220 220 221 221 222 222 222 222 222 223 223 224 225 227 230 233 237 243 249 257 264 271 276 281
256 251 247 244 241 238 235 232 230 228 226 224 222 220 220 220 222 222 223 223 224 222 222 223 223 224 225 227 229 232 237 243 249 256 262 269 274 279
256 251 246 242 239 237 235 232 230 228 226 224 222 220 219 220 221 221 222 223 223 223 223 223 224 224 226 227 229 231 236 242 248 254 260 266 272 278
254 250 245 241 238 235 233 232 230 228 226 224 223 221 220 220 220 221 221 222 222 223 224 224 224 224 226 227 229 231 236 241 246 252 257 264 269 276
253 249 244 240 237 234 232 230 229 228 226 224 223 222 221 221 221 220 220 220 221 222 222 223 224 225 225 227 229 231 235 240 245 249 255 262 267 273
253 247 241 238 234 232 230 229 228 227 226 225 224 223 221 220 221 220 219 220 220 221 222 222 222 223 225 227 229 231 235 239 243 248 253 259 265 271
252 245 239 235 232 229 229 227 226 225 225 224 224 224 223 222 221 221 220 221 221 221 221 221 222 223 224 226 229 231 234 238 243 246 251 256 262 268
250 242 236 231 227 227 226 225 224 223 223 223 223 224 224 223 222 221 221 221 222 222 222 220 220 222 224 226 227 230 233 237 241 245 248 253 258 264
245 238 232 227 223 222 222 222 221 220 220 221 222 222 223 222 222 220 221 222 222 222 221 220 220 222 223 225 226 228 231 236 240 243 247 250 254 259
244 236 227 220 217 217 216 216 216 217 218 220 220 221 221 221 221 220 221 222 221 221 221 223 221 221 223 225 226 228 231 234 238 242 246 248 251 256
240 228 219 214 212 211 211 211 212 213 214 216 218 218 219 219 219 218 219 220 220 220 222 222 221 221 222 224 226 228 229 231 236 240 243 246 248 252
233 221 212 210 207 206 206 207 208 209 210 212 214 215 216 216 216 216 217 219 220 221 222 221 220 221 221 223 224 227 228 231 235 238 240 242 245 248
224 214 209 206 203 202 202 203 205 206 206 208 210 212 213 214 213 212 213 215 217 219 220 219 220 220 220 222 224 226 227 230 233 235 237 239 242 246
213 206 202 200 198 199 200 202 204 205 205 205 207 209 210 210 209 209 209 210 210 213 215 216 217 218 218 220 221 224 227 229 231 232 234 236 239 243
205 198 195 194 196 197 199 202 203 204 204 205 204 206 207 207 206 205 206 207 207 208 209 209 210 213 214 216 219 222 225 227 228 229 231 234 237 241
202 197 196 196 195 196 199 200 202 203 203 204 204 205 206 205 204 203 203 204 205 205 205 206 207 208 210 212 214 217 220 222 225 227 230 233 237 240
197 195 196 195 195 195 198 200 202 203 204 205 206 206 206 204 202 201 201 202 202 202 203 203 203 206 207 208 210 213 217 220 223 225 227 231 234 238
189 190 194 197 198 198 199 201 203 204 205 206 207 208 207 205 202 200 200 201 200 198 199 201 202 204 205 207 209 212 215 219 222 225 227 231 234 237
183 187 191 195 197 198 200 202 203 204 206 206 206 207 206 204 202 200 198 198 198 197 198 199 201 203 204 206 208 211 214 217 219 222 225 228 232 235
Height
5729 5731 5734 5738 5742 5746 5751 5756 5761 5766 5772 5777 5783 5788 5793 5798 5803 5809 5814 5819 5824 5829 5833 5836 5840 5843 5847 5849 5852 5854 5855 5857 5858 5859 5860 5860 5861 5861
5715 5718 5722 5725 5729 5734 5739 5745 5750 5755 5761 5767 5773 5778 5784 5789 5795 5801 5806 5812 5817 5822 5827 5831 5834 5838 5841 5845 5848 5850 5851 5853 5854 5855 5856 5856 5856 5857
5701 5704 5708 5712 5716 5721 5726 5732 5737 5743 5750 5756 5762 5768 5774 5780 5786 5792 5797 5803 5809 5814 5820 5824 5829 5832 5836 5839 5843 5845 5847 5848 5849 5850 5851 5852 5852 5852
5685 5688 5692 5696 5702 5707 5712 5718 5725 5731 5738 5744 5750 5757 5763 5770 5776 5782 5788 5794 5801 5806 5812 5817 5822 5826 5830 5834 5837 5840 5842 5844 5845 5846 5846 5847 5847 5847
5668 5671 5676 5680 5686 5691 5697 5704 5710 5717 5725 5731 5738 5745 5752 5759 5765 5772 5779 5785 5791 5798 5804 5810 5815 5819 5824 5828 5831 5834 5837 5838 5840 5841 5842 5842 5842 5842
5649 5653 5658 5663 5669 5675 5682 5688 5695 5703 5711 5718 5726 5733 5740 5747 5754 5761 5768 5775 5782 5789 5795 5801 5807 5812 5817 5821 5825 5828 5831 5833 5834 5836 5837 5837 5837 5837
5630 5634 5639 5644 5651 5658 5665 5673 5680 5688 5696 5704 5712 5720 5728 5735 5743 5750 5757 5765 5771 5779 5786 5793 5799 5804 5809 5814 5818 5821 5825 5827 5829 5830 5831 5832 5832 5831
5611 5615 5620 5626 5633 5640 5648 5656 5664 5673 5682 5690 5699 5707 5715 5723 5731 5739 5747 5755 5762 5770 5776 5783 5789 5795 5801 5806 5810 5814 5818 5820 5823 5824 5825 5826 5826 5826
5592 5596 5601 5608 5615 5622 5630 5639 5648 5657 5667 5676 5685 5694 5703 5712 5719 5728 5736 5744 5752 5759 5766 5773 5780 5786 5792 5798 5803 5807 5811 5814 5816 5818 5819 5820 5820 5820
5574 5578 5583 5590 5598 5605 5614 5623 5632 5642 5652 5662 5672 5681 5689 5697 5706 5716 5724 5732 5740 5747 5756 5763 5770 5777 5783 5789 5794 5799 5803 5807 5809 5811 5813 5814 5815 5814
5559 5562 5568 5574 5582 5590 5599 5609 5618 5627 5636 5647 5656 5666 5675 5685 5694 5703 5711 5720 5729 5738 5746 5754 5761 5767 5774 5780 5786 5791 5796 5799 5802 5805 5806 5808 5809 5809
5545 5549 5554 5560 5568 5576 5585 5594 5604 5613 5623 5633 5643 5652 5662 5672 5682 5691 5700 5710 5719 5728 5736 5744 5751 5758 5765 5772 5777 5783 5788 5792 5795 5798 5800 5801 5803 5803
5536 5539 5544 5549 5556 5564 5573 5582 5591 5600 5610 5620 5630 5640 5650 5660 5670 5679 5689 5699 5709 5719 5727 5734 5741 5749 5756 5763 5769 5774 5779 5784 5788 5791 5793 5795 5796 5797
5529 5531 5535 5541 5548 5555 5563 5572 5580 5589 5599 5608 5618 5628 5638 5648 5658 5668 5678 5688 5698 5707 5716 5724 5732 5739 5747 5753 5760 5766 5771 5776 5780 5783 5786 5788 5790 5791
5523 5525 5529 5535 5541 5548 5555 5563 5571 5580 5589 5599 5608 5617 5626 5636 5645 5656 5666 5676 5687 5696 5706 5715 5723 5730 5737 5745 5751 5757 5763 5768 5772 5776 5779 5781 5783 5785
5518 5521 5525 5530 5536 5542 5549 5557 5564 5572 5581 5590 5598 5606 5615 5625 5635 5645 5656 5666 5677 5686 5696 5705 5713 5721 5729 5736 5743 5749 5754 5760 5764 5768 5771 5774 5776 5778
5516 5518 5522 5527 5532 5538 5545 5552 5559 5566 5574 5582 5590 5598 5607 5616 5626 5635 5645 5656 5667 5677 5686 5695 5703 5711 5719 5727 5734 5741 5746 5752 5756 5760 5764 5767 5769 5772
5514 5516 5520 5524 5530 5535 5541 5547 5554 5561 5568 5575 5583 5591 5599 5608 5617 5626 5636 5646 5657 5667 5676 5685 5694 5702 5711 5719 5726 5733 5739 5744 5749 5753 5756 5760 5762 5765
5512 5515 5518 5523 5528 5533 5539 5544 5550 5556 5563 5570 5577 5584 5592 5600 5608 5618 5628 5637 5647 5657 5667 5676 5685 5694 5703 5711 5719 5725 5731 5736 5741 5745 5749 5752 5755 5758
5512 5514 5517 5521 5526 5531 5536 5542 5547 5553 5559 5566 5572 5579 5586 5593 5602 5611 5620 5629 5639 5649 5659 5668 5678 5687 5696 5703 5710 5716 5722 5728 5733 5737 5741 5745 5748 5751
5511 5514 5517 5520 5525 5529 5534 5539 5544 5550 5555 5561 5567 5574 5580 5588 5596 5604 5613 5622 5632 5641 5651 5661 5670 5678 5686 5693 5701 5708 5714 5720 5725 5729 5733 5737 5741 5743
5512 5514 5516 5520 5523 5527 5532 5537 5542 5547 5552 5557 5562 5568 5575 5582 5590 5598 5607 5616 5625 5635 5644 5653 5661 5670 5679 5687 5694 5700 5706 5712 5717 5722 5726 5730 5733 5736
5512 5514 5516 5519 5522 5526 5530 5535 5539 5544 5549 5554 5558 5563 5570 5577 5585 5593 5602 5610 5619 5628 5637 5646 5655 5664 5672 5679 5687 5693 5699 5704 5710 5715 5719 5723 5726 5729